|
SR - Orbit
|
Arkansas Oklahoma Regional Star Party;
02:27:38
| Home | Info | Passes |
|
View from above orbital plane
|
View from above satellite
|
Ground track
|
The orbit data is extracted from the following two-line orbital elements,
1 00046U 60007B 13138.13159581 .00000650 00000-0 15366-3 0 3665
2 00046 066.6909 190.3067 0224160 258.7162 098.8681 14.46998346764348
| Epoch (UTC): | 18 May 2013 03:09:29 |
| Eccentricity: | 0.0224160 |
| inclination: | 66.6909° |
| perigee height: | 576 km |
| apogee height: | 895 km |
| right ascension of ascending node: | 190.3067° |
| argument of perigee: | 258.7162° |
| revolutions per day: | 14.46998346 |
| mean anomaly at epoch: | 98.8681° |
| orbit number at epoch: | 76434 |
The dashed part of the orbit path shows where the satellite is in the earth's shadow,
|
|